Durango, CO

7:06 AM MST on January 16, 2018 (GMT -0700)
Durango-La Plata County

Weather History for KDRO - July, 2012

Change the Weather History Date:

Friday, July 27, 2012

  Actual Average Record
Temperature  
Mean Temperature 71 °F 70 °F  
Max Temperature 82 °F 85 °F 94 °F (2016)
Min Temperature 60 °F 54 °F 40 °F (1973)
Degree Days  
Heating Degree Days 0 0  
Month to date heating degree days 0 8  
Since 1 June heating degree days 25 123  
Since 1 July heating degree days 0 8  
Cooling Degree Days 6 5  
Month to date cooling degree days 165 105  
Year to date cooling degree days 255 134  
Since 1 June cooling degree days 255 133  
Growing Degree Days 21 (Base 50)    
Moisture  
Dew Point 53 °F    
Average Humidity 53    
Maximum Humidity 72    
Minimum Humidity 33    
Precipitation  
Precipitation 0.17 in 0.08 in 0.29 in (1981)
Month to date precipitation 1.54 1.41  
Year to date precipitation 4.25 7.48  
Sea Level Pressure  
Sea Level Pressure 30.12 in    
Wind  
Wind Speed 4 mph (NNE)    
Max Wind Speed 20 mph    
Max Gust Speed 23 mph    
Visibility 10 miles    
Events Rain , Thunderstorm    
T = Trace of Precipitation, MM = Missing Value Source: NWS Daily Summary

Daily Weather History Graph

Daily Weather History Graph

Search for Another Location

Airport or City:

Trip Planner

Search our weather history database for the weather conditions in past years. The results will help you decide how hot, cold, wet, or windy it might be!

Date:

Astronomy

Jul. 27, 2012 Rise Set
Actual Time 6:12 AM MDT 8:22 PM MDT
Civil Twilight 5:43 AM MDT 8:51 PM MDT
Nautical Twilight 5:07 AM MDT 9:26 PM MDT
Astronomical Twilight 4:28 AM MDT 10:05 PM MDT
Moon 3:22 PM MDT (7/27) 12:46 AM MDT (7/27)
Length of Visible Light 15h 08m
Length of Day
14h 10m
Waxing Gibbous, 66% of the Moon is Illuminated
Jul 27
Waxing Gibbous
Aug 1
Full
Aug 9
Last Quarter
Aug 17
New
Aug 24
First Quarter

Hourly Weather History & Observations

Time (MDT) Temp. Dew Point Humidity Pressure Visibility Wind Dir Wind Speed Gust Speed Precip Events Conditions
12:53 AM 68.0 °F 48.0 °F 49% 29.99 in 10.0 mi Calm Calm - N/A   Scattered Clouds
1:53 AM 64.0 °F 50.0 °F 60% 29.98 in 10.0 mi Calm Calm - N/A   Clear
2:53 AM 64.0 °F 50.0 °F 60% 29.98 in 10.0 mi NNE 3.5 mph - N/A   Partly Cloudy
3:53 AM 63.0 °F 51.1 °F 65% 29.98 in 10.0 mi North 5.8 mph - N/A   Clear
4:53 AM 63.0 °F 50.0 °F 63% 29.99 in 10.0 mi Calm Calm - N/A   Partly Cloudy
5:53 AM 62.1 °F 50.0 °F 65% 30.04 in 10.0 mi Calm Calm - N/A   Clear
6:53 AM 61.0 °F 48.9 °F 64% 30.04 in 10.0 mi Calm Calm - N/A   Clear
7:53 AM 63.0 °F 51.1 °F 65% 30.08 in 10.0 mi Calm Calm - N/A   Clear
8:53 AM 66.9 °F 50.0 °F 54% 30.10 in 10.0 mi ENE 3.5 mph - N/A   Overcast
9:53 AM 70.0 °F 48.0 °F 46% 30.09 in 10.0 mi Calm Calm - 0.00 in   Overcast
10:53 AM 72.0 °F 46.9 °F 41% 30.11 in 10.0 mi North 4.6 mph - N/A   Mostly Cloudy
11:53 AM 75.9 °F 48.9 °F 38% 30.09 in 10.0 mi North 6.9 mph - 0.00 in   Scattered Clouds
12:53 PM 75.9 °F 48.9 °F 38% 30.08 in 10.0 mi NNW 9.2 mph - N/A   Mostly Cloudy
1:20 PM 77.0 °F 48.2 °F 36% 30.35 in 10.0 mi NE 8.1 mph - N/A Thunderstorm Thunderstorm
1:38 PM 78.8 °F 51.8 °F 39% 30.34 in 10.0 mi East 6.9 mph - 0.00 in   Scattered Clouds
1:53 PM 78.1 °F 50.0 °F 37% 30.06 in 10.0 mi Variable 4.6 mph - 0.00 in   Scattered Clouds
2:53 PM 81.0 °F 48.9 °F 33% 30.03 in 10.0 mi Variable 4.6 mph - N/A   Partly Cloudy
3:53 PM 68.0 °F 57.0 °F 68% 30.09 in 2.5 mi ESE 8.1 mph 23.0 mph 0.14 in Rain Heavy Rain
4:00 PM 69.8 °F 60.8 °F 73% 30.32 in 4.0 mi ESE 6.9 mph - 0.01 in Rain , Thunderstorm Light Rain
4:53 PM 71.1 °F 57.9 °F 63% 30.07 in 10.0 mi East 6.9 mph - 0.02 in Thunderstorm Scattered Clouds
5:10 PM 71.6 °F 59.0 °F 64% 30.31 in 10.0 mi NE 6.9 mph - N/A   Clear
5:30 PM 71.6 °F 60.8 °F 69% 30.31 in 10.0 mi NE 8.1 mph - N/A Thunderstorm Clear
5:45 PM 71.6 °F 62.6 °F 73% 30.31 in 10.0 mi North 11.5 mph - N/A   Clear
5:53 PM 70.0 °F 59.0 °F 68% 30.07 in 10.0 mi North 16.1 mph 21.9 mph N/A   Clear
6:29 PM 69.8 °F 57.2 °F 64% 30.31 in 10.0 mi North 6.9 mph - 0.01 in Rain , Thunderstorm Light Thunderstorms and Rain
6:44 PM 69.8 °F 57.2 °F 64% 30.31 in 10.0 mi NNE 9.2 mph - 0.01 in   Mostly Cloudy
6:53 PM 71.1 °F 57.9 °F 63% 30.08 in 10.0 mi North 9.2 mph - 0.01 in   Mostly Cloudy
7:53 PM 66.9 °F 55.9 °F 68% 30.09 in 10.0 mi NNW 5.8 mph - N/A   Scattered Clouds
8:53 PM 66.0 °F 55.9 °F 70% 30.09 in 10.0 mi Calm Calm - N/A   Mostly Cloudy
9:53 PM 66.0 °F 53.1 °F 63% 30.10 in 10.0 mi Calm Calm - N/A   Clear
10:53 PM 63.0 °F 54.0 °F 72% 30.09 in 10.0 mi Calm Calm - N/A   Clear
11:53 PM 62.1 °F 54.0 °F 75% 30.08 in 10.0 mi ENE 3.5 mph - N/A   Scattered Clouds